Wind_Speed
11 12 14 17 17 21 22 23 28 27 27 27 23 28 27 28 32 32 30 34 40 37 35 41 38 39 42 35 29 30 29 30 26 23 28 31 34 30 28 26 24 25 29 32
14 15 16 18 19 22 23 25 28 27 26 22 26 31 30 25 25 35 34 32 37 38 38 30 37 33 34 30 29 30 32 29 28 31 29 29 20 20 19 20 20 25 30 32
16 19 20 21 21 23 25 22 24 27 24 22 26 30 30 30 27 34 38 40 36 41 34 39 31 30 23 25 26 28 32 33 29 28 24 22 23 23 16 21 21 26 30 27
15 19 20 18 21 19 21 21 25 26 23 17 21 21 23 23 26 27 28 33 37 37 39 32 31 27 27 23 22 25 28 30 28 27 26 26 26 24 27 22 23 25 26 22
18 18 19 23 21 26 24 21 21 23 22 23 25 16 19 24 27 24 23 29 34 37 41 37 28 31 29 25 27 33 34 36 32 31 29 29 27 22 20 21 22 23 17 23
16 13 18 19 25 28 21 16 21 21 19 20 27 22 23 22 25 25 25 36 31 32 36 42 38 33 29 32 33 32 35 37 37 36 33 32 29 26 23 19 27 25 20 23
16 17 4 9 12 19 14 15 14 16 14 19 25 25 24 20 29 30 24 26 34 35 37 35 37 30 35 32 31 31 31 35 40 40 36 36 32 26 24 28 29 25 22 23
11 15 12 13 15 17 20 19 8 9 15 17 22 14 21 24 34 36 32 14 11 39 35 27 20 20 21 26 29 34 35 32 36 35 31 34 34 28 23 30 25 22 18 21
12 15 20 21 18 13 18 16 18 17 19 14 10 21 23 22 29 22 21 9 3 3 4 9 13 17 18 20 19 25 29 28 30 26 28 28 28 28 27 26 22 20 14 20
16 20 19 20 20 16 19 19 16 6 5 8 14 16 11 21 23 21 22 19 11 8 6 9 13 13 12 17 20 17 22 26 26 24 25 24 30 26 24 25 26 22 21 21
21 12 17 19 19 16 14 15 16 11 10 13 10 11 12 21 18 17 25 16 15 9 11 11 13 8 16 21 21 20 21 27 22 22 25 25 27 27 27 27 24 24 22 19
13 6 15 21 24 14 17 21 1 4 14 11 7 15 11 14 21 27 26 24 20 9 1 8 6 7 15 21 21 20 24 22 24 26 26 27 27 26 25 28 27 25 22 18
5 5 13 13 9 8 10 20 18 6 14 16 14 13 17 24 31 41 14 11 12 5 6 11 6 4 14 17 20 23 25 27 28 27 27 27 25 22 26 24 22 19 19 17
7 13 16 13 19 9 9 19 19 11 9 15 13 18 16 21 24 31 36 10 7 3 10 3 6 1 5 21 23 26 27 28 28 28 25 25 24 24 24 22 19 18 17 17
2 9 15 18 21 23 18 22 23 25 22 17 16 15 6 4 8 21 28 36 2 4 10 6 5 2 8 7 26 26 26 28 26 26 25 25 24 22 22 20 19 17 17 16
6 9 15 20 20 21 19 24 23 20 24 23 19 16 7 23 12 31 35 18 8 7 7 7 9 4 10 10 21 27 28 27 27 27 25 24 22 20 19 18 19 18 17 15
9 8 10 17 16 19 13 1 9 19 23 23 14 16 15 8 9 16 25 17 14 13 7 9 9 4 9 9 18 28 26 25 27 25 23 21 20 21 22 20 19 17 17 16
4 8 6 10 15 12 7 8 11 14 23 21 18 12 11 14 14 14 18 22 22 16 11 6 11 3 7 14 22 21 24 25 25 22 21 21 22 19 20 19 18 15 16 16
8 1 3 4 7 15 18 8 4 8 23 16 14 15 14 20 20 15 10 17 23 23 14 9 13 7 6 20 26 23 25 25 22 22 22 21 22 17 17 18 19 18 17 18
10 5 3 4 4 4 4 7 9 6 14 12 17 18 19 20 7 9 10 24 25 26 13 11 8 9 11 25 27 27 23 22 22 21 21 19 21 17 16 15 18 16 14 16
4 3 5 8 6 7 8 9 4 3 5 15 23 27 26 16 18 25 32 25 24 26 24 13 14 11 10 24 31 20 23 23 22 21 19 20 18 15 16 15 16 14 13 13
4 4 4 4 4 4 7 5 4 7 12 17 29 35 25 24 26 25 25 24 22 24 22 20 19 14 10 23 31 22 24 23 23 21 21 21 18 14 14 14 14 14 13 13
4 5 5 5 4 9 20 21 23 18 19 18 23 28 26 28 24 22 24 22 22 24 24 24 22 15 13 24 31 19 25 23 23 22 23 21 17 15 14 12 14 13 12 11
15 18 9 10 8 7 23 23 14 18 18 29 31 30 31 28 28 29 25 24 23 23 24 24 18 14 16 27 33 18 27 23 23 25 21 18 18 18 13 12 12 12 13 11
15 13 9 16 15 15 14 20 14 21 32 20 18 23 22 25 26 27 25 24 23 23 26 19 20 15 20 31 31 19 27 24 26 23 19 17 16 18 14 13 12 12 13 11
14 9 2 4 21 18 16 21 15 28 18 23 27 28 28 28 28 24 25 27 25 25 22 18 10 16 24 34 28 24 27 23 28 25 20 14 16 17 14 13 13 12 10 11
Wind_Direction
307 301 281 290 285 279 282 278 274 275 286 293 279 263 265 239 233 249 226 236 249 254 239 238 242 232 232 222 210 223 228 228 227 244 253 257 259 260 258 259 244 239 236 237
289 275 284 283 272 264 270 275 275 283 287 289 287 280 278 267 245 231 234 229 246 249 247 245 229 230 221 205 214 228 242 248 248 256 253 252 249 258 256 255 242 231 235 238
298 294 300 297 277 274 273 265 267 274 281 286 281 276 269 270 272 259 229 223 227 246 251 238 238 240 213 210 220 242 251 257 260 252 245 243 235 229 222 230 236 230 233 238
297 293 290 295 294 281 276 274 274 278 280 271 271 275 261 262 261 263 251 226 217 230 247 248 222 227 235 221 227 240 250 254 253 245 233 231 241 237 227 229 230 235 233 227
289 297 308 307 265 263 277 291 285 288 282 279 260 262 264 268 253 252 255 255 216 217 242 247 237 229 229 239 247 256 257 251 244 240 232 229 225 237 216 215 224 230 227 214
282 327 295 298 309 295 276 289 282 282 280 265 264 255 258 253 262 259 228 244 245 216 226 244 246 236 242 249 243 238 249 233 233 237 236 233 224 222 211 207 210 214 214 212
308 306 327 325 275 282 267 262 272 267 261 260 257 248 256 255 257 265 267 241 233 230 227 230 227 240 241 236 240 244 235 235 230 230 230 239 219 218 198 200 208 210 215 208
327 318 340 321 308 309 301 298 276 271 293 302 317 310 253 239 254 264 298 254 264 215 219 220 223 230 240 242 241 239 239 232 220 223 236 234 209 203 195 201 199 212 208 204
297 289 297 298 298 281 290 287 257 251 273 281 261 282 279 273 265 250 248 238 84 44 147 189 225 232 240 241 238 226 218 221 220 221 213 218 203 184 189 196 190 206 199 187
306 300 300 305 294 282 275 282 273 257 276 254 278 249 252 271 268 231 249 261 171 149 198 211 226 239 243 239 247 238 214 207 196 200 205 191 180 180 183 175 180 178 183 184
314 320 308 302 282 299 272 286 248 248 245 277 288 267 6 304 288 270 228 223 148 176 205 227 217 221 240 239 229 208 196 186 184 186 178 181 165 172 177 171 177 179 185 187
333 287 284 298 290 19 4 300 23 214 267 289 255 279 272 335 334 288 216 175 149 153 293 249 127 242 235 213 209 186 183 176 177 173 169 162 167 177 176 174 176 181 181 179
321 295 306 295 272 29 357 302 297 333 274 266 264 281 357 354 345 340 52 101 111 78 340 309 71 259 212 188 165 172 174 171 166 165 166 164 166 169 162 171 180 185 177 173
274 269 267 282 286 269 252 275 279 199 253 267 283 297 358 355 337 322 323 169 110 96 288 359 343 278 180 167 168 167 170 163 164 159 167 164 162 164 166 170 172 171 174 172
243 274 283 280 280 278 265 264 271 269 262 274 281 298 346 202 299 291 299 297 354 289 302 36 350 319 206 175 163 162 164 156 156 157 158 162 162 165 167 173 169 173 170 171
299 283 303 293 289 284 318 299 299 291 293 277 280 283 287 147 192 256 264 296 298 287 319 330 333 352 212 167 174 164 155 158 158 158 160 160 162 166 171 166 170 169 167 165
284 275 293 286 294 312 308 113 347 327 319 324 344 351 346 333 276 309 326 334 324 322 299 293 320 339 237 157 144 156 158 159 154 155 155 160 161 166 172 168 171 169 169 177
250 262 280 279 299 280 287 145 356 291 284 306 333 336 320 306 311 288 311 318 309 300 304 295 295 244 259 186 142 152 154 159 155 156 159 162 167 169 173 176 168 172 181 183
201 205 282 276 269 285 291 325 23 342 300 302 321 341 350 342 336 314 351 355 343 290 293 277 279 6 218 184 152 166 163 163 159 162 164 168 178 171 172 170 175 181 186 181
184 186 232 320 287 282 71 45 359 340 285 8 7 341 335 334 310 270 5 344 336 330 293 266 293 316 216 187 163 169 171 163 167 165 169 172 167 165 170 175 185 190 191 186
218 209 222 241 258 274 155 208 196 228 306 316 316 305 311 303 289 294 301 306 311 315 318 304 287 280 225 188 177 174 168 172 169 166 168 169 170 175 179 183 190 185 169 178
199 272 222 223 249 282 190 302 273 296 313 303 306 300 297 284 280 279 284 290 293 294 297 290 281 250 225 195 183 177 174 173 170 167 165 164 166 182 175 183 174 171 177 177
275 240 269 197 252 299 333 291 246 257 304 299 300 288 282 280 277 273 273 282 276 280 281 277 277 267 208 189 188 181 170 176 168 165 163 156 167 182 184 184 177 168 177 183
297 303 287 291 247 276 288 306 311 312 304 299 286 277 274 268 267 266 265 265 262 262 263 266 262 215 193 186 188 171 169 177 167 157 159 155 166 172 182 183 175 181 178 178
284 293 283 276 285 293 300 325 329 322 318 286 297 287 280 262 256 253 254 251 249 252 252 259 262 213 200 181 182 175 172 176 162 155 155 160 173 181 176 173 178 177 186 182
273 286 269 287 313 302 310 333 335 330 304 313 297 288 283 263 247 242 241 244 252 250 257 274 288 227 191 179 183 175 173 173 158 147 157 158 170 166 171 172 175 173 190 184
Height
1457 1457 1453 1445 1441 1437 1435 1433 1427 1418 1416 1418 1412 1404 1393 1397 1404 1405 1408 1414 1414 1414 1414 1417 1420 1422 1427 1425 1427 1436 1441 1444 1445 1446 1447 1448 1447 1448 1448 1449 1451 1452 1452 1452
1456 1452 1444 1440 1438 1437 1438 1437 1430 1423 1422 1425 1417 1405 1394 1388 1387 1391 1397 1401 1406 1406 1406 1408 1411 1415 1415 1418 1423 1427 1432 1436 1440 1440 1440 1441 1442 1442 1443 1444 1445 1447 1447 1448
1456 1450 1443 1440 1437 1436 1431 1431 1430 1429 1423 1423 1418 1407 1395 1384 1383 1381 1381 1387 1394 1398 1397 1400 1403 1407 1410 1413 1417 1421 1424 1427 1431 1433 1434 1436 1437 1438 1439 1440 1441 1442 1444 1445
1451 1445 1442 1439 1436 1431 1430 1424 1422 1422 1424 1428 1417 1411 1395 1384 1381 1376 1371 1372 1380 1388 1391 1393 1395 1400 1404 1406 1410 1414 1418 1421 1424 1426 1426 1428 1430 1431 1434 1434 1436 1438 1440 1443
1447 1443 1441 1442 1437 1431 1427 1420 1420 1419 1418 1417 1415 1413 1393 1384 1376 1369 1366 1367 1368 1376 1382 1386 1389 1393 1397 1401 1404 1408 1411 1413 1416 1419 1419 1422 1425 1426 1429 1430 1433 1433 1437 1441
1440 1443 1442 1437 1433 1428 1418 1421 1422 1421 1420 1420 1407 1409 1389 1386 1372 1365 1359 1362 1362 1367 1374 1378 1382 1385 1388 1394 1396 1399 1403 1404 1407 1410 1412 1413 1418 1420 1423 1425 1429 1430 1434 1438
1444 1436 1441 1444 1430 1423 1416 1422 1430 1426 1421 1409 1397 1398 1380 1377 1369 1362 1355 1353 1354 1358 1363 1368 1372 1376 1382 1386 1389 1392 1394 1395 1399 1402 1403 1408 1411 1414 1417 1418 1423 1426 1430 1433
1448 1449 1440 1433 1434 1429 1423 1423 1437 1444 1435 1422 1403 1406 1370 1367 1362 1356 1353 1345 1340 1346 1352 1359 1365 1370 1374 1378 1381 1384 1387 1388 1391 1394 1397 1401 1406 1408 1413 1414 1420 1423 1428 1430
1447 1442 1435 1430 1426 1426 1421 1423 1416 1426 1423 1423 1410 1401 1378 1365 1352 1356 1351 1346 1346 1349 1352 1356 1363 1367 1370 1373 1375 1377 1380 1383 1386 1389 1393 1397 1401 1405 1407 1412 1418 1422 1426 1428
1442 1441 1432 1426 1421 1421 1417 1414 1421 1431 1432 1425 1397 1388 1380 1367 1352 1350 1350 1345 1346 1352 1355 1357 1362 1365 1366 1368 1370 1373 1375 1378 1382 1385 1389 1394 1397 1402 1406 1411 1418 1422 1424 1427
1443 1442 1439 1429 1418 1415 1411 1404 1403 1406 1412 1407 1407 1376 1368 1368 1353 1348 1349 1344 1347 1352 1355 1357 1358 1361 1364 1364 1367 1369 1372 1376 1379 1382 1388 1392 1396 1399 1402 1410 1415 1419 1423 1426
1445 1446 1440 1430 1417 1422 1426 1409 1416 1430 1413 1402 1405 1381 1370 1370 1355 1350 1339 1342 1348 1352 1354 1354 1355 1357 1357 1358 1361 1365 1370 1372 1377 1382 1387 1391 1394 1397 1403 1408 1413 1417 1422 1425
1458 1444 1442 1427 1416 1432 1436 1421 1416 1418 1411 1400 1393 1381 1369 1375 1373 1372 1342 1343 1350 1354 1355 1353 1352 1353 1353 1355 1358 1364 1368 1373 1377 1383 1386 1390 1392 1397 1403 1408 1413 1418 1422 1425
1453 1446 1444 1445 1433 1429 1435 1417 1407 1410 1405 1389 1380 1373 1391 1398 1405 1382 1368 1348 1351 1357 1356 1353 1354 1352 1352 1354 1359 1363 1368 1372 1377 1381 1384 1388 1393 1399 1404 1409 1413 1418 1421 1424
1447 1446 1436 1428 1422 1415 1408 1409 1398 1386 1368 1376 1378 1376 1377 1394 1405 1392 1381 1364 1356 1356 1354 1354 1354 1353 1353 1352 1357 1363 1367 1372 1376 1380 1385 1390 1395 1400 1405 1409 1413 1417 1420 1423
1445 1441 1433 1424 1415 1405 1405 1396 1378 1368 1362 1356 1367 1372 1366 1381 1389 1382 1375 1363 1355 1355 1356 1357 1355 1353 1351 1353 1357 1362 1366 1372 1377 1381 1386 1391 1396 1401 1406 1410 1413 1416 1419 1422
1445 1439 1435 1423 1412 1404 1403 1398 1396 1386 1384 1367 1374 1380 1370 1371 1375 1373 1361 1361 1360 1357 1358 1359 1357 1355 1354 1355 1357 1361 1366 1372 1377 1382 1387 1392 1397 1402 1406 1409 1413 1415 1418 1421
1444 1442 1440 1426 1417 1418 1393 1396 1397 1391 1381 1371 1361 1375 1376 1374 1372 1372 1370 1367 1365 1361 1359 1360 1359 1356 1356 1356 1357 1364 1369 1375 1379 1384 1389 1393 1398 1402 1406 1409 1412 1415 1417 1420
1442 1441 1441 1429 1417 1404 1398 1397 1407 1406 1387 1386 1385 1373 1378 1381 1376 1371 1370 1368 1365 1362 1361 1361 1359 1357 1355 1357 1360 1367 1371 1376 1380 1385 1389 1394 1397 1401 1404 1408 1411 1414 1416 1419
1436 1440 1443 1427 1424 1414 1407 1408 1408 1407 1392 1384 1391 1389 1390 1389 1382 1371 1370 1369 1366 1363 1361 1360 1357 1357 1357 1359 1361 1366 1372 1376 1381 1385 1390 1394 1396 1399 1403 1407 1410 1413 1416 1418
1430 1437 1434 1429 1424 1406 1403 1402 1404 1407 1394 1387 1387 1388 1386 1382 1376 1373 1369 1369 1369 1367 1363 1360 1359 1358 1358 1359 1362 1366 1370 1376 1381 1386 1390 1393 1396 1400 1404 1407 1410 1412 1415 1417
1429 1422 1421 1419 1417 1409 1401 1405 1405 1395 1393 1394 1389 1380 1384 1383 1379 1374 1371 1370 1369 1367 1365 1360 1357 1356 1356 1359 1362 1366 1370 1376 1381 1385 1388 1391 1395 1401 1404 1407 1410 1412 1415 1417
1417 1413 1416 1416 1402 1393 1397 1398 1394 1394 1390 1389 1388 1381 1377 1374 1372 1370 1370 1368 1367 1364 1362 1357 1353 1353 1353 1357 1362 1366 1370 1375 1380 1384 1385 1391 1396 1401 1404 1407 1409 1412 1415 1417
1407 1404 1402 1404 1392 1392 1392 1388 1385 1385 1384 1382 1376 1373 1369 1365 1365 1361 1364 1364 1363 1361 1357 1353 1351 1350 1353 1356 1361 1366 1370 1375 1380 1381 1385 1391 1395 1400 1405 1407 1410 1413 1415 1417
1406 1400 1401 1394 1388 1386 1384 1383 1381 1377 1375 1369 1368 1365 1360 1358 1355 1355 1356 1357 1356 1354 1350 1350 1346 1346 1350 1353 1359 1364 1370 1374 1378 1380 1386 1392 1396 1400 1405 1407 1410 1413 1414 1416
1396 1398 1400 1394 1387 1385 1378 1376 1373 1369 1366 1362 1359 1354 1351 1349 1348 1349 1350 1350 1349 1348 1347 1346 1345 1345 1346 1352 1357 1364 1369 1374 1377 1383 1386 1392 1397 1401 1404 1407 1409 1412 1414 1416